Location: Tamazert
(32.6352°N, 5.2072°W)
Time: 00:01:00
(UTC+00:00)

Altair - Pass Details

Date: 10 October 2022
Orbit: 1501 x 1682 km, 47.2° (Epoch: 05 December)

Event Time Altitude Azimuth Distance (km) Brightness Sun altitude
Exits shadow 05:43:34 - 289° (WNW) 3,975 9.0 -8.7°
Reaches altitude 10° 05:44:12 10° 291° (WNW) 3,808 9.0 -8.6°
Maximum altitude 05:52:53 35° 354° (N) 2,429 8.5 -6.7°
Drops below altitude 10° 06:01:51 10° 58° (ENE) 3,923 10.6 -4.9°
Sets 06:05:30 0° 67° (ENE) 4,924 11.4 -4.1°
